This is the latest recevied weather packets stored in our database for station/object W6MAF. If no packets are shown the sender has not sent any weather packets the latest 10 day(s).
| Time | Temp. | Humidity | Pressure | Rain* | Wind** | Luminosity | Snow |
|---|---|---|---|---|---|---|---|
| 1788489848 | 19.44° C | 27% | - | 0 mm | 5.36 m/s, 217° | - | - |
| 1788489550 | 19.44° C | 26% | - | 0 mm | 5.36 m/s, 201° | - | - |
| 1788489253 | 20° C | 26% | - | 0 mm | 4.92 m/s, 226° | - | - |
| 1788488952 | 20° C | 26% | - | 0 mm | 4.92 m/s, 221° | - | - |
| 1788488654 | 20° C | 25% | - | 0 mm | 4.47 m/s, 219° | - | - |
| 1788488356 | 20° C | 25% | - | 0 mm | 5.36 m/s, 195° | - | - |
| 1788488058 | 20.56° C | 26% | - | 0 mm | 4.47 m/s, 211° | - | - |
| 1788487761 | 20.56° C | 26% | - | 0 mm | 5.36 m/s, 224° | - | - |
| 1788487463 | 21.11° C | 25% | - | 0 mm | 4.02 m/s, 231° | - | - |
| 1788487162 | 21.11° C | 24% | - | 0 mm | 2.68 m/s, 225° | - | - |
| 1788486864 | 21.67° C | 23% | - | 0 mm | 4.02 m/s, 222° | - | - |
| 1788486567 | 21.67° C | 22% | - | 0 mm | 4.92 m/s, 229° | - | - |
| 1788486269 | 21.67° C | 21% | - | 0 mm | 4.47 m/s, 219° | - | - |
| 1788485972 | 22.22° C | 21% | - | 0 mm | 4.47 m/s, 200° | - | - |
| 1788485372 | 22.78° C | 18% | - | 0 mm | 3.58 m/s, 217° | - | - |
| 1788485075 | 22.78° C | 17% | - | 0 mm | 3.13 m/s, 198° | - | - |
| 1788484777 | 23.33° C | 15% | - | 0 mm | 5.36 m/s, 214° | - | - |
| 1788484479 | 23.33° C | 14% | - | 0 mm | 4.02 m/s, 231° | - | - |
| 1788484181 | 23.33° C | 12% | - | 0 mm | 0 m/s | - | - |
| 1788483884 | 23.33° C | 11% | - | 0 mm | 3.58 m/s, 222° | - | - |
| 1788483583 | 23.33° C | 9% | - | 0 mm | 6.26 m/s, 201° | - | - |
| 1788483285 | 23.33° C | 9% | - | 0 mm | 0 m/s | - | - |
| 1788482987 | 23.33° C | 8% | - | 0 mm | 0 m/s | - | - |
| 1788482689 | 23.33° C | 8% | - | 0 mm | 4.02 m/s, 200° | - | - |
| 1788482392 | 23.33° C | 9% | - | 0 mm | 5.81 m/s, 198° | - | - |
* Rain latest hour (hover to see other rain measurements)
** Current wind speed in m/s (hover to see current wind gust speed)